Weather History for KPPO - October, 2012

Change the Weather History Date:

Saturday, October 13, 2012

  Actual Average (KVPZ) Record (KVPZ)
Temperature  
Mean Temperature 50 °F 53 °F  
Max Temperature 64 °F 64 °F 83 °F (2008)
Min Temperature 35 °F 43 °F 31 °F (2006)
Degree Days  
Heating Degree Days 16 12  
Month to date heating degree days 136  
Since 1 July heating degree days 266  
Cooling Degree Days 0 0  
Month to date cooling degree days 11  
Year to date cooling degree days 713  
Moisture  
Dew Point 44 °F    
Average Humidity 77    
Maximum Humidity 99    
Minimum Humidity 52    
Precipitation  
Precipitation 0.25 in 0.11 in 1.93 in (2001)
Month to date precipitation 1.33  
Year to date precipitation 30.08  
Sea Level Pressure  
Sea Level Pressure 30.06 in    
Wind  
Wind Speed 6 mph ()    
Max Wind Speed 17 mph    
Max Gust Speed 24 mph    
Visibility 7.1 miles    
Events Rain    
T = Trace of Precipitation, MM = Missing Value Source: Averaged Metar Reports

Daily Weather History Graph

Daily Weather History Graph

Search for Another Location

Airport or City:

Trip Planner

Search our weather history database for the weather conditions in past years. The results will help you decide how hot, cold, wet, or windy it might be!

Date:

Astronomy

Oct. 13, 2012 Rise Set
Actual Time 6:57 AM CDT 6:08 PM CDT
Civil Twilight 6:29 AM CDT 6:35 PM CDT
Nautical Twilight 5:57 AM CDT 7:08 PM CDT
Astronomical Twilight 5:25 AM CDT 7:40 PM CDT
Moon 4:45 AM CDT (10/13) 4:52 PM CDT (10/13)
Length of Visible Light 12h 06m
Length of Day
11h 10m
Waning Crescent, 5% of the Moon is Illuminated
Oct 13
Waning Crescent
Oct 15
New
Oct 21
First Quarter
Oct 29
Full
Nov 6
Last Quarter

Hourly Weather History & Observations

Time (CDT) Temp. Windchill Dew Point Humidity Pressure Visibility Wind Dir Wind Speed Gust Speed Precip Events Conditions
12:55 AM 38.3 °F 35.9 °F 25.2 °F 59% 30.28 in 10.0 mi SE 3.5 mph - N/A   Clear
1:15 AM 36.7 °F - 25.2 °F 63% 30.29 in 10.0 mi Calm Calm - N/A   Clear
1:35 AM 37.0 °F 32.4 °F 25.0 °F 62% 30.28 in 7.0 mi ESE 5.8 mph - N/A   Clear
1:55 AM 36.3 °F 33.7 °F 25.9 °F 66% 30.28 in 3.0 mi SE 3.5 mph - N/A   Haze
2:15 AM 37.2 °F 34.7 °F 26.1 °F 64% 30.28 in 5.0 mi SE 3.5 mph - N/A   Haze
2:35 AM 35.8 °F - 27.3 °F 71% 30.27 in 3.0 mi Calm Calm - N/A   Haze
2:55 AM 37.9 °F - 27.7 °F 67% 30.26 in 3.0 mi Calm Calm - N/A   Haze
3:15 AM 39.4 °F 36.1 °F 28.4 °F 65% 30.25 in 4.0 mi SE 4.6 mph - N/A   Haze
3:35 AM 40.5 °F 37.3 °F 28.9 °F 64% 30.25 in 10.0 mi SE 4.6 mph - N/A   Overcast
3:55 AM 41.2 °F 36.0 °F 28.9 °F 62% 30.22 in 10.0 mi SE 8.1 mph - N/A   Overcast
4:15 AM 41.9 °F 38.2 °F 28.9 °F 60% 30.22 in 10.0 mi SE 5.8 mph - N/A   Overcast
4:35 AM 42.1 °F 38.4 °F 28.8 °F 59% 30.20 in 10.0 mi SE 5.8 mph - N/A   Scattered Clouds
4:55 AM 42.6 °F 39.0 °F 29.5 °F 60% 30.19 in 10.0 mi SSE 5.8 mph - N/A   Light Drizzle
5:15 AM 44.1 °F 39.0 °F 28.6 °F 55% 30.17 in 10.0 mi SSE 9.2 mph - N/A   Mostly Cloudy
5:35 AM 45.0 °F 40.1 °F 28.4 °F 52% 30.17 in 10.0 mi SSE 9.2 mph 16.1 mph N/A   Overcast
5:55 AM 45.0 °F 40.1 °F 28.8 °F 53% 30.17 in 10.0 mi South 9.2 mph - N/A   Overcast
6:15 AM 45.0 °F 40.6 °F 29.3 °F 54% 30.17 in 10.0 mi SSE 8.1 mph - N/A   Overcast
6:35 AM 45.0 °F 40.6 °F 29.8 °F 55% 30.17 in 10.0 mi South 8.1 mph - N/A   Overcast
6:55 AM 45.1 °F 40.8 °F 30.2 °F 56% 30.16 in 10.0 mi SSE 8.1 mph - N/A   Overcast
7:15 AM 45.5 °F 42.5 °F 31.1 °F 57% 30.15 in 10.0 mi SSE 5.8 mph - N/A   Overcast
7:35 AM 46.2 °F 44.1 °F 32.0 °F 58% 30.15 in 10.0 mi SSE 4.6 mph - N/A   Overcast
7:55 AM 47.3 °F - 32.7 °F 57% 30.15 in 10.0 mi SSE 4.6 mph - N/A   Mostly Cloudy
8:15 AM 48.4 °F - 34.0 °F 58% 30.14 in 10.0 mi SSE 6.9 mph - N/A   Overcast
8:55 AM 50.0 °F - 35.8 °F 58% 30.11 in 10.0 mi SSE 8.1 mph - N/A   Overcast
9:35 AM 52.2 °F - 37.8 °F 58% 30.11 in 10.0 mi SSE 4.6 mph - N/A   Overcast
9:55 AM 54.7 °F - 39.4 °F 56% 30.10 in 10.0 mi South 9.2 mph - N/A   Mostly Cloudy
10:35 AM 55.4 °F - 40.3 °F 57% 30.08 in 10.0 mi South 8.1 mph - N/A   Overcast
10:55 AM 55.6 °F - 41.0 °F 58% 30.08 in 10.0 mi South 11.5 mph 17.3 mph N/A Rain Light Rain
11:15 AM 54.1 °F - 43.7 °F 68% 30.07 in 10.0 mi South 8.1 mph - N/A Rain Light Rain
11:35 AM 52.5 °F - 46.4 °F 80% 30.05 in 10.0 mi South 9.2 mph - N/A Rain Light Rain
11:55 AM 52.0 °F - 47.1 °F 83% 30.04 in 10.0 mi South 6.9 mph - N/A Rain Light Rain
12:15 PM 51.4 °F - 47.3 °F 86% 30.04 in 5.0 mi South 5.8 mph - 0.03 in Rain Heavy Rain
12:35 PM 50.9 °F - 48.6 °F 92% 30.04 in 5.0 mi SSW 4.6 mph - 0.08 in Rain Light Rain
1:15 PM 50.9 °F - 49.6 °F 95% 30.01 in 4.0 mi South 10.4 mph - 0.05 in Rain Rain
1:35 PM 51.1 °F - 50.2 °F 97% 29.99 in 4.0 mi South 9.2 mph - 0.07 in Rain Rain
1:55 PM 51.8 °F - 51.1 °F 97% 29.96 in 4.0 mi South 9.2 mph 16.1 mph 0.08 in Rain Light Rain
2:15 PM 52.7 °F - 52.0 °F 97% 29.96 in 5.0 mi SSW 8.1 mph - 0.01 in Rain Light Rain
2:35 PM 53.6 °F - 53.1 °F 98% 29.94 in 3.0 mi South 10.4 mph - 0.02 in Rain Rain
3:15 PM 56.5 °F - 55.9 °F 98% 29.93 in 4.0 mi SSW 11.5 mph 18.4 mph N/A Rain Rain
3:35 PM 58.1 °F - 57.6 °F 98% 29.92 in 5.0 mi SSW 15.0 mph 21.9 mph 0.01 in Rain Light Rain
3:55 PM 59.0 °F - 58.5 °F 98% 29.91 in 5.0 mi SSW 15.0 mph 24.2 mph 0.01 in Rain Light Rain
4:15 PM 59.7 °F - 59.2 °F 98% 29.90 in 5.0 mi SSW 15.0 mph 19.6 mph N/A   Overcast
4:35 PM 60.4 °F - 60.1 °F 99% 29.90 in 5.0 mi SSW 15.0 mph 23.0 mph N/A   Overcast
4:55 PM 60.8 °F - 60.3 °F 98% 29.90 in 4.0 mi SW 17.3 mph 23.0 mph N/A   Overcast
5:15 PM 61.2 °F - 60.4 °F 97% 29.90 in 5.0 mi SW 17.3 mph 21.9 mph N/A Rain Light Rain
5:35 PM 61.2 °F - 60.3 °F 97% 29.89 in 5.0 mi SSW 11.5 mph 17.3 mph N/A   Light Drizzle
5:55 PM 60.8 °F - 60.1 °F 97% 29.89 in 4.0 mi SSW 9.2 mph - 0.06 in Rain Light Rain
6:15 PM 61.0 °F - 60.3 °F 97% 29.89 in 4.0 mi SSW 11.5 mph 18.4 mph N/A   Overcast
6:35 PM 61.0 °F - 60.3 °F 97% 29.88 in 4.0 mi SSW 9.2 mph - N/A   Overcast
7:35 PM 61.7 °F - 61.0 °F 97% 29.89 in 5.0 mi South 10.4 mph - N/A   Overcast
7:55 PM 61.9 °F - 61.0 °F 97% 29.89 in 5.0 mi SSW 9.2 mph - N/A   Mostly Cloudy
9:15 PM 62.6 °F - 61.3 °F 96% 29.89 in 5.0 mi SSW 12.7 mph 17.3 mph N/A   Overcast
9:35 PM 63.5 °F - 61.7 °F 94% 29.89 in 7.0 mi SSW 12.7 mph 16.1 mph N/A   Overcast
9:55 PM 63.9 °F - 61.7 °F 93% 29.88 in 7.0 mi SSW 9.2 mph 16.1 mph N/A   Overcast
10:15 PM 63.9 °F - 61.7 °F 93% 29.88 in 7.0 mi SSW 9.2 mph - N/A   Mostly Cloudy
11:15 PM 64.0 °F - 61.7 °F 92% 29.86 in 7.0 mi SSW 10.4 mph 16.1 mph N/A   Scattered Clouds
11:35 PM 63.9 °F - 61.7 °F 93% 29.85 in 7.0 mi South 11.5 mph 17.3 mph N/A   Clear